Regional Weather Roundup
Issued by NWS Upton, NY

Home | Current Version | Previous Version | Text Only | Print | Product List | Glossary On
Versions: 1 2 3 4 5 6 7 8 9 10 11 12 13 14 15 16 17 18 19 20 21 22 23 24 25 26 27 28 29 30 31 32 33 34 35
000
ASUS41 KOKX 201708
RWROKX

REGIONAL WEATHER ROUNDUP
NATIONAL WEATHER SERVICE NEW YORK NY
1200 PM EST MON NOV 20 2017

NOTE: "FAIR" INDICATES FEW OR NO CLOUDS BELOW 12,000 FEET WITH NO
SIGNIFICANT WEATHER AND/OR OBSTRUCTIONS TO VISIBILITY.

NYZ071-072-176-178-NJZ106-104-201800-
NEW YORK CITY METRO AREA

CITY           SKY/WX    TMP DP  RH WIND       PRES   REMARKS
Central Park   PTSUNNY   45  22  40 W10G22    30.04F
Bronx Bot Gard   N/A     43  21  42 W12       30.03F
LaGuardia APRT MOSUNNY   45  22  40 W20G26    30.02F
Kennedy INTL   PTSUNNY   45  23  42 W16G25    30.04F
Breezy Point     N/A     43 N/A N/A W12G22      N/A
Newark/Liberty MOSUNNY   47  20  34 W18G28    30.03F
Teterboro      MOSUNNY   45  23  42 W12       30.02F
$$

NYZ177-179-078>081-201800-
LONG ISLAND NEW YORK

CITY           SKY/WX    TMP DP  RH WIND       PRES   REMARKS
Jones Beach      N/A     43 N/A N/A W20G28      N/A
Matinecock PT    N/A     43 N/A N/A W21G26      N/A
Farmingdale    PTSUNNY   43  22  43 W15G24    30.03F
MacArthur/ISP  PTSUNNY   44  23  43 W21G28    30.01S
Shirley        CLOUDY    41  25  53 NW14G29   30.02S
Mt Sinai Harb    N/A    N/A N/A N/A W10G16      N/A
Westhampton    CLOUDY    41  22  46 W21G28    30.01F
East Hampton   CLOUDY    40  22  47 W15G22    29.99S WCI  32
Southold       NOT AVBL
Montauk          N/A     43  22  43 W14G25    29.98F
$$

NYZ052-065-067-201800-
HUDSON VALLEY

CITY           SKY/WX    TMP DP  RH WIND       PRES   REMARKS
White Plains   PTSUNNY   40  23  50 NW18G25   29.99F WCI  31
Larchmont Harb   N/A     41 N/A N/A W7G15       N/A
Croton On Huds   N/A     41 N/A N/A W22G28      N/A
Newburgh       NOT AVBL
Montgomery     PTSUNNY   43  22  43 W18G28    29.99S
Poughkeepsie   MOSUNNY   40  20  44 W13G23    29.98F WCI  32
Albany         PTSUNNY   36  23  59 VRB3      29.95F
$$

NJZ001-105-106-008-010-013-015-019>022-104-201800-
NEW JERSEY

CITY           SKY/WX    TMP DP  RH WIND       PRES   REMARKS
Newark/Liberty MOSUNNY   47  20  34 W18G28    30.03F
Teterboro      MOSUNNY   45  23  42 W12       30.02F
Caldwell       MOSUNNY   44  20  38 NW14G25   30.03F
Somerville     SUNNY     45  22  40 W12G23    30.04F
Linden         FAIR      46  21  37 NW17G28   30.04F
Perth Amboy      N/A     43 N/A N/A W23G30      N/A
Sussex         SUNNY     42  22  44 W9G20     30.01S
Andover          N/A     41  22  46 VRB6G20   30.02F
Trenton        SUNNY     44  22  41 SW13G21   30.06F
Millville      SUNNY     46  23  40 W15G28    30.13F
Atlantic City  SUNNY     46  22  38 W20G25    30.11F
Wrightstown    SUNNY     45  22  39 W10G22    30.06F
Toms River     SUNNY     45  21  38 W18G26    30.08F
Belmar         MOSUNNY   44  20  38 W15G23    30.06F
$$

PAZ047>061-062-071-201800-
EASTERN PENNSYLVANIA

CITY           SKY/WX    TMP DP  RH WIND       PRES   REMARKS
Philadelphia   MOSUNNY   45  21  38 W16G23    30.11F
Allentown      SUNNY     44  23  43 W17G26    30.06F
Scranton       PTSUNNY   38  25  59 W13G21    30.02F WCI  30
$$

CTZ002-004>006-009-010-012-RIZ004-006-007-MAZ004-011-015-201800-
SOUTHERN NEW ENGLAND
 IN CT

CITY           SKY/WX    TMP DP  RH WIND       PRES   REMARKS
Bradley INTL   PTSUNNY   41  21  44 NW16G23   29.95F
Hartford       PTSUNNY   42  19  39 W10G20    29.96F
Danbury        PTSUNNY   40  21  46 W15G23    29.99F WCI  32
Wtrbury/Oxford MOSUNNY   38  19  46 W13G25    29.95F WCI  30
Norwalk Harbor   N/A     39 N/A N/A W15G21      N/A  WCI  31
Bridgeport     PTSUNNY   44  23  43 W18G28    29.99F
Meriden        PTSUNNY   41  19  41 W17G23    29.97F
New Haven      PTSUNNY   43  21  41 W10G22    29.98F
Chester        PTSUNNY   43  16  33 W10G20    29.95F
Groton         PTSUNNY   42  18  37 W17G25    29.96F
Wilimantic     CLOUDY    39  21  48 W12G20    29.96F WCI  32

 IN RI

CITY           SKY/WX    TMP DP  RH WIND       PRES   REMARKS
Providence     PTSUNNY   40  20  44 NW22      29.95S WCI  30
Block Island   PTSUNNY   42  22  44 W14G23    29.97F
Westerly       PTSUNNY   44  20  38 W9G20     29.96F
 IN MA

CITY           SKY/WX    TMP DP  RH WIND       PRES   REMARKS
Boston         MOSUNNY   40  14  34 W25G38    29.88F WCI  29
Worcester      CLOUDY    34  16  47 W20G36    29.87S WCI  23
Westfield      CLOUDY    39  21  48 W13G24    29.93F WCI  31
Provincetown   PTSUNNY   42  18  37 W24G33    29.90S
Nantucket      PTSUNNY   41  21  44 W16G33    29.93S
$$

ANZ330-335-338-340-345-350-353-355-201800-
COASTAL MARINE OBSERVATIONS


STATION/POSITION TIME  SKY/WX   TEMP    WIND        PRES    VSBY  WAVE
                                AIR SEA DIR/SP/G                  HT/PER
                 (UTC)          (F)     (DEG/KT/KT) (MB)    (MI)  (FT/S)
NY HARB ENTRANCE 1650            44 57  280/ 19/ 25 1016.7          3/ 4
20 S FIRE ISLAND 1550            42 57  290/ 23/ 27 1017.5          7/ 6
GREAT SOUTH BAY  1615            41 47  270/ 17/ 21   N/A
HUDSON CANYON    1550            45 59  300/ 23/ 29 1017.5         10/ 8
KINGS POINT      1648            43 51  340/ 16/ 22 1017.4
EXECUTION ROCKS  1630            44     260/ 12/ 17   N/A
WESTERN LI SOUND 1549            41     270/ 14/ 19   N/A           1/ 3
CENTRAL LI SOUND NOT AVBL
ROBBINS REEF     1642            43     270/ 18/ 23 1017.4
$$


>>>>>>>>>>>>>>>>>>>>>>>>>>>> KEY <<<<<<<<<<<<<<<<<<<<<<<<<<<
>                                                          <
>     SKY/WX - Sky Condition/Present Weather               <
>     TMP    - Temperature in Fahrenheit                   <
>     DP     - Dew Point in Fahrenheit                     <
>     RH     - Relative Humidity in Percent                <
>     WIND   - Direction (from) and Speed in MPH           <
>     PRES   - Mean Sea Level Pressure (inches of Hg)      <
>     WCI    - Wind Chill Index                            <
>     VSB    - VISIBILITY IN MILES                         <
>     HX     - HEAT INDEX                                  <
>     TC     - TEMPERATURE IN CELSIUS                      <
>     VRB    - VARIABLE WIND DIRECTION                     <
>                                                          <
>>>>>>>>>>>>>>>>>>>>>>>>>>>> KEY <<<<<<<<<<<<<<<<<<<<<<<<<<<




USA.gov is the U.S. government's official web portal to all federal, state and local government web resources and services.